Погода в Плеханах

Россия / Саратовская область     51°58′13″N   47°21′39″E
темп.,
°C
ветер,
м/с
пор.,
м/с
влажн.,
%
обл.,
%
осадки,
мм/ч
давл.,
гПа
погр.,
м
17 июня, чт
чт1701:00+19сз34905 0.0 101061
04:00+18ссз36935 0.0 1012132
07:00+19с48844 0.0 1014354
10:00+22ссв796080 0.0 1015799
13:00+23ссв78474 0.0 10171239
16:00+23ссв67450 0.0 10181401
19:00+22св47590 0.0 1019404
22:00+17ссв33710 0.0 102023
18 июня, пт
пт1801:00+15с35790 0.0 102189
04:00+14с35814 0.0 102277
07:00+16ссв397366 0.0 1023325
10:00+19св79535 0.0 1024998
13:00+21св67480 0.0 10251601
16:00+21св67450 0.0 10251694
19:00+19всв47570 0.0 1026596
22:00+14св22700 0.0 102712
19 июня, сб
сб1901:00+13ссв22704 0.0 102719
04:00+12ссв22735 0.0 102814
07:00+15св236874 0.0 1029154
10:00+19св34540 0.0 1029818
13:00+22всв33450 0.0 10281095
16:00+23всв23440 0.0 10271126
19:00+23вюв12554 0.0 1026313
22:00+17ю00655 0.0 102611
20 июня, вс
вс2001:00+16сз11680 0.0 102611
04:00+15сз11730 0.0 102611
07:00+19ссз11710 0.0 102697
10:00+24ссв12560 0.0 1026602
13:00+27ссз11480 0.0 10251333
16:00+28с22460 0.0 10231556
19:00+28с12577 0.0 10221490
22:00+22в11750 0.0 102311
21 июня, пн
пн2101:00+20ссв11770 0.0 102311
04:00+19ссв2281100 0.0 102311
07:00+22св1276100 0.0 1023115
10:00+26всв116194 0.0 1023716
13:00+29всв11496 0.0 10221853
16:00+30ссв11436 0.0 10202121
19:00+29с225526 0.0 1020288
22:00+23всв11690 0.0 102011